Time,TemperatureF,DewpointF,PressureIn,WindDirection,WindDirectionDegrees,WindSpeedMPH,WindSpeedGustMPH,Humidity,HourlyPrecipIn,Conditions,Clouds,dailyrainin,SoftwareType,DateUTC
2013-04-07 00:02:00,44.8,42.7,29.83,East,90,0.0,1.1,92,0.01,,,0.00,WUHU216HW,2013-04-07 07:02:00,
2013-04-07 00:07:00,44.8,42.7,29.83,East,90,0.0,0.4,92,0.01,,,0.00,WUHU216HW,2013-04-07 07:07:00,
2013-04-07 00:12:00,44.6,42.5,29.82,East,90,0.0,0.4,92,0.01,,,0.00,WUHU216HW,2013-04-07 07:12:00,
2013-04-07 00:17:00,44.6,42.5,29.82,East,90,1.1,1.1,92,0.02,,,0.01,WUHU216HW,2013-04-07 07:17:00,
2013-04-07 00:22:00,44.6,42.5,29.82,East,90,0.9,1.3,92,0.02,,,0.01,WUHU216HW,2013-04-07 07:22:00,
2013-04-07 00:27:00,44.6,42.8,29.81,ENE,68,0.4,1.3,93,0.02,,,0.01,WUHU216HW,2013-04-07 07:27:00,
2013-04-07 00:33:00,44.6,42.8,29.80,ENE,68,0.4,1.6,93,0.01,,,0.01,WUHU216HW,2013-04-07 07:33:00,
2013-04-07 00:38:00,44.6,42.5,29.79,East,90,0.4,1.8,92,0.01,,,0.01,WUHU216HW,2013-04-07 07:38:00,
2013-04-07 00:43:00,44.6,42.5,29.79,NE,45,0.4,1.8,92,0.01,,,0.01,WUHU216HW,2013-04-07 07:43:00,
2013-04-07 00:48:00,44.5,42.3,29.78,NE,45,0.0,0.9,92,0.01,,,0.01,WUHU216HW,2013-04-07 07:48:00,
2013-04-07 00:53:00,44.5,42.3,29.78,NE,45,0.0,0.4,92,0.01,,,0.01,WUHU216HW,2013-04-07 07:53:00,
2013-04-07 00:58:00,44.5,42.3,29.77,NNE,23,0.0,0.4,92,0.02,,,0.02,WUHU216HW,2013-04-07 07:58:00,
2013-04-07 01:03:00,44.5,42.3,29.76,East,90,0.0,0.9,92,0.02,,,0.02,WUHU216HW,2013-04-07 08:03:00,
2013-04-07 01:08:00,44.6,42.5,29.76,NE,45,0.2,0.9,92,0.02,,,0.02,WUHU216HW,2013-04-07 08:08:00,
2013-04-07 01:13:00,44.6,42.5,29.75,ENE,68,0.0,0.2,92,0.02,,,0.02,WUHU216HW,2013-04-07 08:13:00,
2013-04-07 01:18:00,44.6,42.5,29.75,ENE,68,0.0,0.4,92,0.01,,,0.02,WUHU216HW,2013-04-07 08:18:00,
2013-04-07 01:23:00,44.6,42.8,29.74,East,90,0.0,0.9,93,0.01,,,0.02,WUHU216HW,2013-04-07 08:23:00,
2013-04-07 01:28:00,44.6,42.8,29.73,East,90,0.0,0.9,93,0.01,,,0.02,WUHU216HW,2013-04-07 08:28:00,
2013-04-07 01:33:00,44.8,42.9,29.73,ENE,68,1.8,1.8,93,0.01,,,0.02,WUHU216HW,2013-04-07 08:33:00,
2013-04-07 01:38:00,44.8,42.9,29.72,East,90,0.2,1.8,93,0.01,,,0.02,WUHU216HW,2013-04-07 08:38:00,
2013-04-07 01:43:00,44.8,42.9,29.72,ENE,68,0.0,1.3,93,0.01,,,0.02,WUHU216HW,2013-04-07 08:43:00,
2013-04-07 01:48:00,44.8,42.9,29.71,East,90,0.2,2.0,93,0.02,,,0.03,WUHU216HW,2013-04-07 08:48:00,
2013-04-07 01:53:00,45.0,43.1,29.71,East,90,0.4,2.0,93,0.02,,,0.03,WUHU216HW,2013-04-07 08:53:00,
2013-04-07 01:58:00,45.0,42.8,29.71,SE,135,0.2,1.6,92,0.01,,,0.03,WUHU216HW,2013-04-07 08:58:00,
2013-04-07 02:03:00,45.0,43.1,29.71,ENE,68,1.1,1.8,93,0.01,,,0.03,WUHU216HW,2013-04-07 09:03:00,
2013-04-07 02:08:00,45.0,42.8,29.70,ENE,68,0.9,1.8,92,0.01,,,0.03,WUHU216HW,2013-04-07 09:08:00,
2013-04-07 02:13:00,45.0,43.1,29.69,ENE,68,1.1,1.8,93,0.01,,,0.03,WUHU216HW,2013-04-07 09:13:00,
2013-04-07 02:18:00,44.8,42.7,29.69,ENE,68,0.2,1.3,92,0.01,,,0.03,WUHU216HW,2013-04-07 09:18:00,
2013-04-07 02:23:00,45.0,42.8,29.69,NNW,338,1.1,1.1,92,0.01,,,0.03,WUHU216HW,2013-04-07 09:23:00,
2013-04-07 02:28:00,44.8,42.9,29.68,North,0,0.4,1.1,93,0.01,,,0.03,WUHU216HW,2013-04-07 09:28:00,
2013-04-07 02:33:00,44.8,42.9,29.68,ENE,68,0.2,1.3,93,0.01,,,0.03,WUHU216HW,2013-04-07 09:33:00,
2013-04-07 02:38:00,44.8,42.9,29.67,ENE,68,0.0,1.3,93,0.01,,,0.03,WUHU216HW,2013-04-07 09:38:00,
2013-04-07 02:43:00,44.8,42.9,29.67,NE,45,0.0,0.9,93,0.00,,,0.03,WUHU216HW,2013-04-07 09:43:00,
2013-04-07 02:48:00,45.0,43.1,29.67,East,90,0.0,0.4,93,0.00,,,0.03,WUHU216HW,2013-04-07 09:48:00,
2013-04-07 02:53:00,45.0,43.1,29.66,ENE,68,0.0,0.4,93,0.00,,,0.03,WUHU216HW,2013-04-07 09:53:00,
2013-04-07 02:58:00,45.0,43.1,29.66,SW,225,0.7,0.9,93,0.00,,,0.03,WUHU216HW,2013-04-07 09:58:00,
2013-04-07 03:03:00,45.0,43.1,29.66,NNE,23,0.0,0.9,93,0.00,,,0.03,WUHU216HW,2013-04-07 10:03:00,
2013-04-07 03:08:00,45.0,43.1,29.66,ENE,68,0.9,0.9,93,0.00,,,0.03,WUHU216HW,2013-04-07 10:08:00,
2013-04-07 03:13:00,45.0,43.1,29.65,ENE,68,0.2,0.9,93,0.00,,,0.03,WUHU216HW,2013-04-07 10:13:00,
2013-04-07 03:18:00,45.0,43.1,29.65,East,90,0.4,0.4,93,0.00,,,0.03,WUHU216HW,2013-04-07 10:18:00,
2013-04-07 03:23:00,45.2,43.3,29.65,East,90,0.4,0.7,93,0.00,,,0.03,WUHU216HW,2013-04-07 10:23:00,
2013-04-07 03:28:00,45.2,43.3,29.65,SSE,158,0.2,0.7,93,0.00,,,0.03,WUHU216HW,2013-04-07 10:28:00,
2013-04-07 03:33:00,45.4,43.5,29.65,ESE,113,1.8,1.8,93,0.00,,,0.03,WUHU216HW,2013-04-07 10:33:00,
2013-04-07 03:38:00,45.4,43.5,29.64,ESE,113,0.4,1.8,93,0.00,,,0.03,WUHU216HW,2013-04-07 10:38:00,
2013-04-07 03:43:00,45.4,43.5,29.65,SE,135,0.4,1.8,93,0.00,,,0.03,WUHU216HW,2013-04-07 10:43:00,
2013-04-07 03:48:00,45.4,43.5,29.64,ENE,68,0.0,0.4,93,0.00,,,0.03,WUHU216HW,2013-04-07 10:48:00,
2013-04-07 03:53:00,45.4,43.5,29.64,ENE,68,0.0,0.4,93,0.00,,,0.03,WUHU216HW,2013-04-07 10:53:00,
2013-04-07 03:58:00,45.4,43.5,29.64,ENE,68,0.2,0.4,93,0.01,,,0.04,WUHU216HW,2013-04-07 10:58:00,
2013-04-07 04:03:00,45.5,43.7,29.64,ENE,68,0.0,0.2,93,0.01,,,0.04,WUHU216HW,2013-04-07 11:03:00,
2013-04-07 04:08:00,45.5,43.7,29.64,ESE,113,0.0,0.2,93,0.01,,,0.04,WUHU216HW,2013-04-07 11:08:00,
2013-04-07 04:13:00,45.5,43.7,29.64,ESE,113,0.0,0.0,93,0.01,,,0.04,WUHU216HW,2013-04-07 11:13:00,
2013-04-07 04:18:00,45.5,43.7,29.64,ESE,113,0.0,0.4,93,0.01,,,0.04,WUHU216HW,2013-04-07 11:18:00,
2013-04-07 04:23:00,45.5,43.7,29.64,ESE,113,0.0,0.4,93,0.01,,,0.04,WUHU216HW,2013-04-07 11:23:00,
2013-04-07 04:28:00,45.5,43.7,29.64,ESE,113,0.0,0.0,93,0.01,,,0.04,WUHU216HW,2013-04-07 11:28:00,
2013-04-07 04:33:00,45.5,43.7,29.64,ESE,113,0.0,0.0,93,0.01,,,0.04,WUHU216HW,2013-04-07 11:33:00,
2013-04-07 04:38:00,45.5,43.7,29.64,ESE,113,0.0,0.0,93,0.02,,,0.05,WUHU216HW,2013-04-07 11:38:00,
2013-04-07 04:43:00,45.7,43.8,29.64,ESE,113,0.0,0.0,93,0.02,,,0.05,WUHU216HW,2013-04-07 11:43:00,
2013-04-07 04:48:00,45.7,43.8,29.64,ESE,113,0.0,0.2,93,0.02,,,0.05,WUHU216HW,2013-04-07 11:48:00,
2013-04-07 04:53:00,45.5,43.7,29.64,ESE,113,0.0,0.4,93,0.01,,,0.05,WUHU216HW,2013-04-07 11:53:00,
2013-04-07 04:58:00,45.7,43.8,29.65,NW,315,0.2,0.4,93,0.01,,,0.05,WUHU216HW,2013-04-07 11:58:00,
2013-04-07 05:03:00,45.5,43.7,29.64,ENE,68,0.4,0.4,93,0.01,,,0.05,WUHU216HW,2013-04-07 12:03:00,
2013-04-07 05:08:00,45.5,43.7,29.65,ENE,68,0.0,0.4,93,0.01,,,0.05,WUHU216HW,2013-04-07 12:08:00,
2013-04-07 05:13:00,45.7,44.1,29.64,East,90,0.4,1.1,94,0.01,,,0.05,WUHU216HW,2013-04-07 12:13:00,
2013-04-07 05:18:00,45.7,44.1,29.65,NNE,23,0.4,1.3,94,0.01,,,0.05,WUHU216HW,2013-04-07 12:18:00,
2013-04-07 05:23:00,45.9,44.3,29.65,SSE,158,0.2,1.3,94,0.01,,,0.05,WUHU216HW,2013-04-07 12:23:00,
2013-04-07 05:28:00,46.1,44.5,29.65,SSE,158,0.2,0.9,94,0.02,,,0.06,WUHU216HW,2013-04-07 12:28:00,
2013-04-07 05:33:00,46.1,44.5,29.65,WSW,248,0.2,1.3,94,0.02,,,0.06,WUHU216HW,2013-04-07 12:33:00,
2013-04-07 05:39:00,46.6,45.0,29.66,SSE,158,0.7,2.5,94,0.01,,,0.06,WUHU216HW,2013-04-07 12:39:00,
2013-04-07 05:44:00,47.0,45.6,29.68,SSE,158,0.2,2.7,95,0.01,,,0.06,WUHU216HW,2013-04-07 12:44:00,
2013-04-07 05:49:00,47.2,45.8,29.68,ENE,68,0.7,2.7,95,0.01,,,0.06,WUHU216HW,2013-04-07 12:49:00,
2013-04-07 05:54:00,47.2,45.8,29.68,West,270,1.1,4.3,95,0.01,,,0.06,WUHU216HW,2013-04-07 12:54:00,
2013-04-07 05:59:00,46.8,45.2,29.70,North,0,0.9,7.4,94,0.01,,,0.06,WUHU216HW,2013-04-07 12:59:00,
2013-04-07 06:04:00,46.4,44.8,29.71,WNW,293,0.7,7.4,94,0.01,,,0.06,WUHU216HW,2013-04-07 13:04:00,
2013-04-07 06:09:00,46.4,44.6,29.72,NNW,338,0.9,4.9,93,0.01,,,0.06,WUHU216HW,2013-04-07 13:09:00,
2013-04-07 06:14:00,46.1,43.9,29.73,SSE,158,5.1,5.1,92,0.01,,,0.06,WUHU216HW,2013-04-07 13:14:00,
2013-04-07 06:19:00,45.7,43.3,29.73,NW,315,3.4,7.2,91,0.01,,,0.06,WUHU216HW,2013-04-07 13:19:00,
2013-04-07 06:24:00,45.5,43.1,29.74,East,90,1.8,7.2,91,0.00,,,0.06,WUHU216HW,2013-04-07 13:24:00,
2013-04-07 06:29:00,45.0,42.6,29.74,SE,135,0.4,6.3,91,0.00,,,0.06,WUHU216HW,2013-04-07 13:29:00,
2013-04-07 06:34:00,44.8,42.4,29.75,SSE,158,1.1,6.3,91,0.00,,,0.06,WUHU216HW,2013-04-07 13:34:00,
2013-04-07 06:40:00,44.5,41.8,29.76,North,0,3.6,4.0,90,0.00,,,0.06,WUHU216HW,2013-04-07 13:40:00,
2013-04-07 06:45:00,44.3,41.6,29.76,NNE,23,3.4,4.5,90,0.00,,,0.06,WUHU216HW,2013-04-07 13:45:00,
2013-04-07 06:50:00,44.3,41.6,29.78,NW,315,3.8,4.5,90,0.00,,,0.06,WUHU216HW,2013-04-07 13:50:00,
2013-04-07 06:55:00,44.1,41.7,29.78,East,90,1.3,3.8,91,0.00,,,0.06,WUHU216HW,2013-04-07 13:55:00,
2013-04-07 07:00:00,44.1,41.4,29.79,SW,225,1.1,4.3,90,0.00,,,0.06,WUHU216HW,2013-04-07 14:00:00,
2013-04-07 07:05:00,43.9,41.2,29.80,SW,225,1.3,5.4,90,0.00,,,0.06,WUHU216HW,2013-04-07 14:05:00,
2013-04-07 07:10:00,43.9,41.0,29.80,NNE,23,0.9,5.4,89,0.00,,,0.06,WUHU216HW,2013-04-07 14:10:00,
2013-04-07 07:15:00,43.9,40.6,29.80,NE,45,1.1,6.9,88,0.00,,,0.06,WUHU216HW,2013-04-07 14:15:00,
2013-04-07 07:20:00,43.7,40.4,29.80,SSE,158,0.4,6.9,88,0.00,,,0.06,WUHU216HW,2013-04-07 14:20:00,
2013-04-07 07:25:00,43.6,40.6,29.81,West,270,2.5,4.9,89,0.00,,,0.06,WUHU216HW,2013-04-07 14:25:00,
2013-04-07 07:30:00,43.4,40.4,29.81,West,270,0.4,4.5,89,0.00,,,0.06,WUHU216HW,2013-04-07 14:30:00,
2013-04-07 07:35:00,43.4,40.1,29.82,SSW,203,0.2,2.5,88,0.00,,,0.06,WUHU216HW,2013-04-07 14:35:00,
2013-04-07 07:40:00,43.2,39.9,29.83,NNW,338,0.0,2.9,88,0.00,,,0.06,WUHU216HW,2013-04-07 14:40:00,
2013-04-07 07:45:00,43.0,39.7,29.84,WSW,248,0.2,2.9,88,0.00,,,0.06,WUHU216HW,2013-04-07 14:45:00,
2013-04-07 07:50:00,42.8,39.5,29.84,ENE,68,0.4,1.6,88,0.00,,,0.06,WUHU216HW,2013-04-07 14:50:00,
2013-04-07 07:55:00,43.0,40.1,29.85,East,90,0.7,1.1,89,0.00,,,0.06,WUHU216HW,2013-04-07 14:55:00,
2013-04-07 08:00:00,43.2,40.2,29.85,ESE,113,0.0,1.1,89,0.00,,,0.06,WUHU216HW,2013-04-07 15:00:00,
2013-04-07 08:05:00,43.4,40.4,29.86,ESE,113,0.9,1.1,89,0.00,,,0.06,WUHU216HW,2013-04-07 15:05:00,
2013-04-07 08:10:00,43.4,40.4,29.86,SE,135,0.0,1.8,89,0.00,,,0.06,WUHU216HW,2013-04-07 15:10:00,
2013-04-07 08:15:00,43.6,40.9,29.87,SSE,158,0.0,1.8,90,0.00,,,0.06,WUHU216HW,2013-04-07 15:15:00,
2013-04-07 08:20:00,43.6,40.9,29.87,East,90,1.1,1.6,90,0.00,,,0.06,WUHU216HW,2013-04-07 15:20:00,
2013-04-07 08:25:00,43.6,40.9,29.87,East,90,0.4,1.6,90,0.00,,,0.06,WUHU216HW,2013-04-07 15:25:00,
2013-04-07 08:30:00,43.7,41.0,29.87,NW,315,0.0,1.1,90,0.00,,,0.06,WUHU216HW,2013-04-07 15:30:00,
2013-04-07 08:35:00,43.9,41.2,29.88,ENE,68,0.0,0.4,90,0.00,,,0.06,WUHU216HW,2013-04-07 15:35:00,
2013-04-07 08:40:00,44.1,41.4,29.88,ENE,68,0.0,0.2,90,0.00,,,0.06,WUHU216HW,2013-04-07 15:40:00,
2013-04-07 08:45:00,44.3,41.6,29.88,East,90,0.0,0.2,90,0.02,,,0.08,WUHU216HW,2013-04-07 15:45:00,
2013-04-07 08:50:00,44.6,42.2,29.88,East,90,0.0,0.7,91,0.02,,,0.08,WUHU216HW,2013-04-07 15:50:00,
2013-04-07 08:55:00,45.0,42.6,29.89,ESE,113,0.0,0.7,91,0.02,,,0.08,WUHU216HW,2013-04-07 15:55:00,
2013-04-07 09:00:00,45.4,42.9,29.89,ESE,113,0.2,0.7,91,0.02,,,0.08,WUHU216HW,2013-04-07 16:00:00,
2013-04-07 09:05:00,45.5,41.6,29.89,ESE,113,1.8,2.9,86,0.02,,,0.08,WUHU216HW,2013-04-07 16:05:00,
2013-04-07 09:10:00,45.7,42.4,29.89,South,180,0.2,2.9,88,0.02,,,0.08,WUHU216HW,2013-04-07 16:10:00,
2013-04-07 09:16:00,45.9,42.9,29.89,South,180,0.0,1.3,89,0.02,,,0.08,WUHU216HW,2013-04-07 16:16:00,
2013-04-07 09:21:00,46.1,42.1,29.89,ESE,113,0.7,1.3,86,0.02,,,0.08,WUHU216HW,2013-04-07 16:21:00,
2013-04-07 09:26:00,46.1,42.5,29.89,East,90,0.0,1.3,87,0.02,,,0.08,WUHU216HW,2013-04-07 16:26:00,
2013-04-07 09:31:00,46.4,42.9,29.89,South,180,0.4,0.7,87,0.02,,,0.08,WUHU216HW,2013-04-07 16:31:00,
2013-04-07 09:36:00,46.4,42.9,29.89,ENE,68,0.7,2.0,87,0.02,,,0.08,WUHU216HW,2013-04-07 16:36:00,
2013-04-07 09:41:00,46.6,43.3,29.90,SSE,158,0.0,2.0,88,0.00,,,0.08,WUHU216HW,2013-04-07 16:41:00,
2013-04-07 09:46:00,47.0,43.4,29.90,ENE,68,0.4,1.1,87,0.00,,,0.08,WUHU216HW,2013-04-07 16:46:00,
2013-04-07 09:51:00,47.2,43.6,29.90,SE,135,1.8,1.8,87,0.00,,,0.08,WUHU216HW,2013-04-07 16:51:00,
2013-04-07 09:56:00,47.3,43.0,29.90,South,180,0.2,1.8,85,0.00,,,0.08,WUHU216HW,2013-04-07 16:56:00,
2013-04-07 10:01:00,47.7,43.1,29.91,West,270,0.0,1.8,84,0.00,,,0.08,WUHU216HW,2013-04-07 17:01:00,
2013-04-07 10:06:00,47.9,43.3,29.91,SE,135,1.1,1.8,84,0.00,,,0.08,WUHU216HW,2013-04-07 17:06:00,
2013-04-07 10:12:00,48.1,42.8,29.91,ESE,113,1.1,4.3,82,0.00,,,0.08,WUHU216HW,2013-04-07 17:12:00,
2013-04-07 10:17:00,48.1,43.1,29.91,SE,135,0.4,4.3,83,0.00,,,0.08,WUHU216HW,2013-04-07 17:17:00,
2013-04-07 10:22:00,48.4,44.1,29.92,SSE,158,0.0,3.6,85,0.00,,,0.08,WUHU216HW,2013-04-07 17:22:00,
2013-04-07 10:27:00,48.4,44.1,29.92,NNW,338,0.0,0.9,85,0.00,,,0.08,WUHU216HW,2013-04-07 17:27:00,
2013-04-07 10:32:00,48.1,43.5,29.92,SSW,203,0.0,1.1,84,0.00,,,0.08,WUHU216HW,2013-04-07 17:32:00,
2013-04-07 10:37:00,48.1,43.7,29.92,SSW,203,0.0,1.1,85,0.00,,,0.08,WUHU216HW,2013-04-07 17:37:00,
2013-04-07 10:42:00,48.2,44.3,29.92,South,180,0.0,0.9,86,0.00,,,0.08,WUHU216HW,2013-04-07 17:42:00,
2013-04-07 10:47:00,48.4,44.4,29.92,South,180,0.4,0.7,86,0.00,,,0.08,WUHU216HW,2013-04-07 17:47:00,
2013-04-07 10:52:00,48.6,44.6,29.92,SW,225,0.0,0.4,86,0.00,,,0.08,WUHU216HW,2013-04-07 17:52:00,
2013-04-07 10:57:00,48.8,44.7,29.93,South,180,0.2,0.9,86,0.00,,,0.08,WUHU216HW,2013-04-07 17:57:00,
2013-04-07 11:02:00,49.1,44.8,29.93,East,90,0.0,0.9,85,0.00,,,0.08,WUHU216HW,2013-04-07 18:02:00,
2013-04-07 11:07:00,49.7,45.3,29.93,ESE,113,0.4,1.8,85,0.00,,,0.08,WUHU216HW,2013-04-07 18:07:00,
2013-04-07 11:12:00,49.7,45.0,29.93,NNE,23,0.0,1.8,84,0.00,,,0.08,WUHU216HW,2013-04-07 18:12:00,
2013-04-07 11:17:00,49.5,44.8,29.93,West,270,1.8,2.7,84,0.00,,,0.08,WUHU216HW,2013-04-07 18:17:00,
2013-04-07 11:22:00,49.3,44.7,29.93,SSW,203,0.0,2.7,84,0.00,,,0.08,WUHU216HW,2013-04-07 18:22:00,
2013-04-07 11:27:00,49.0,44.0,29.93,SE,135,0.0,2.5,83,0.00,,,0.08,WUHU216HW,2013-04-07 18:27:00,
2013-04-07 11:32:00,49.7,45.3,29.93,WNW,293,0.4,2.5,85,0.00,,,0.08,WUHU216HW,2013-04-07 18:32:00,
2013-04-07 11:37:00,49.9,45.2,29.93,East,90,0.0,1.6,84,0.00,,,0.08,WUHU216HW,2013-04-07 18:37:00,
2013-04-07 11:42:00,49.9,43.9,29.93,NE,45,2.7,2.7,80,0.01,,,0.10,WUHU216HW,2013-04-07 18:42:00,
2013-04-07 11:47:00,49.9,44.6,29.93,ESE,113,0.2,2.7,82,0.01,,,0.10,WUHU216HW,2013-04-07 18:47:00,
2013-04-07 11:52:00,49.7,44.4,29.93,WNW,293,0.7,2.0,82,0.01,,,0.10,WUHU216HW,2013-04-07 18:52:00,
2013-04-07 11:57:00,49.7,43.7,29.93,SE,135,1.1,2.9,80,0.01,,,0.10,WUHU216HW,2013-04-07 18:57:00,
2013-04-07 12:02:00,50.0,45.0,29.93,SSW,203,0.2,2.9,83,0.01,,,0.10,WUHU216HW,2013-04-07 19:02:00,
2013-04-07 12:07:00,50.4,44.5,29.93,ESE,113,0.7,2.5,80,0.01,,,0.10,WUHU216HW,2013-04-07 19:07:00,
2013-04-07 12:12:00,50.6,45.3,29.94,NW,315,1.1,2.5,82,0.01,,,0.10,WUHU216HW,2013-04-07 19:12:00,
2013-04-07 12:17:00,50.4,44.5,29.94,SW,225,0.4,3.1,80,0.01,,,0.10,WUHU216HW,2013-04-07 19:17:00,
2013-04-07 12:22:00,50.0,44.7,29.94,SSW,203,0.0,3.1,82,0.01,,,0.10,WUHU216HW,2013-04-07 19:22:00,
2013-04-07 12:27:00,49.3,44.3,29.94,North,0,0.2,1.8,83,0.01,,,0.10,WUHU216HW,2013-04-07 19:27:00,
2013-04-07 12:32:00,48.6,43.9,29.94,WNW,293,0.0,1.8,84,0.01,,,0.10,WUHU216HW,2013-04-07 19:32:00,
2013-04-07 12:37:00,48.2,43.9,29.95,WNW,293,0.2,0.4,85,0.02,,,0.10,WUHU216HW,2013-04-07 19:37:00,
2013-04-07 12:42:00,47.9,43.9,29.95,NW,315,0.0,0.4,86,0.01,,,0.10,WUHU216HW,2013-04-07 19:42:00,
2013-04-07 12:48:00,47.7,43.8,29.95,SE,135,0.7,1.8,86,0.01,,,0.10,WUHU216HW,2013-04-07 19:48:00,
2013-04-07 12:53:00,47.3,43.4,29.95,NNW,338,0.0,1.8,86,0.01,,,0.10,WUHU216HW,2013-04-07 19:53:00,
2013-04-07 12:58:00,47.2,43.6,29.95,NW,315,0.0,1.1,87,0.01,,,0.10,WUHU216HW,2013-04-07 19:58:00,
2013-04-07 13:03:00,47.3,43.7,29.95,SSW,203,0.0,0.4,87,0.01,,,0.10,WUHU216HW,2013-04-07 20:03:00,
2013-04-07 13:08:00,47.5,44.2,29.95,SSW,203,0.0,0.4,88,0.01,,,0.10,WUHU216HW,2013-04-07 20:08:00,
2013-04-07 13:13:00,47.9,44.6,29.95,South,180,0.2,0.4,88,0.01,,,0.10,WUHU216HW,2013-04-07 20:13:00,
2013-04-07 13:18:00,48.2,44.6,29.95,NW,315,0.2,1.1,87,0.01,,,0.10,WUHU216HW,2013-04-07 20:18:00,
2013-04-07 13:23:00,48.6,44.6,29.95,East,90,0.4,1.1,86,0.01,,,0.10,WUHU216HW,2013-04-07 20:23:00,
2013-04-07 13:28:00,48.6,44.3,29.95,NNE,23,1.1,1.1,85,0.01,,,0.10,WUHU216HW,2013-04-07 20:28:00,
2013-04-07 13:33:00,48.8,44.5,29.95,SW,225,0.2,1.6,85,0.00,,,0.10,WUHU216HW,2013-04-07 20:33:00,
2013-04-07 13:38:00,49.1,44.8,29.95,SE,135,0.0,1.8,85,0.00,,,0.10,WUHU216HW,2013-04-07 20:38:00,
2013-04-07 13:43:00,49.3,44.3,29.96,NNE,23,0.4,2.0,83,0.00,,,0.10,WUHU216HW,2013-04-07 20:43:00,
2013-04-07 13:48:00,49.1,44.1,29.96,SW,225,1.6,2.2,83,0.00,,,0.10,WUHU216HW,2013-04-07 20:48:00,
2013-04-07 13:53:00,49.1,44.1,29.96,NE,45,0.0,3.1,83,0.00,,,0.10,WUHU216HW,2013-04-07 20:53:00,
2013-04-07 13:58:00,49.3,44.3,29.96,NNE,23,1.3,3.1,83,0.00,,,0.10,WUHU216HW,2013-04-07 20:58:00,
2013-04-07 14:03:00,49.7,44.4,29.96,ESE,113,1.1,3.6,82,0.00,,,0.10,WUHU216HW,2013-04-07 21:03:00,
2013-04-07 14:08:00,49.5,44.5,29.96,NNE,23,0.4,4.0,83,0.00,,,0.10,WUHU216HW,2013-04-07 21:08:00,
2013-04-07 14:13:00,49.3,44.3,29.97,SE,135,1.1,4.0,83,0.00,,,0.10,WUHU216HW,2013-04-07 21:13:00,
2013-04-07 14:18:00,48.6,43.7,29.96,NW,315,0.2,3.6,83,0.00,,,0.10,WUHU216HW,2013-04-07 21:18:00,
2013-04-07 14:23:00,48.2,43.6,29.97,SW,225,1.1,3.6,84,0.00,,,0.10,WUHU216HW,2013-04-07 21:23:00,
2013-04-07 14:28:00,48.2,43.3,29.96,SE,135,0.0,2.0,83,0.00,,,0.10,WUHU216HW,2013-04-07 21:28:00,
2013-04-07 14:33:00,48.2,43.6,29.96,NW,315,0.0,2.0,84,0.03,,,0.14,WUHU216HW,2013-04-07 21:33:00,
2013-04-07 14:38:00,48.4,43.7,29.97,ESE,113,0.0,1.1,84,0.03,,,0.14,WUHU216HW,2013-04-07 21:38:00,
2013-04-07 14:43:00,48.6,43.7,29.97,SE,135,0.0,1.8,83,0.03,,,0.14,WUHU216HW,2013-04-07 21:43:00,
2013-04-07 14:50:00,48.8,44.1,29.97,South,180,0.0,0.9,84,0.03,,,0.14,WUHU216HW,2013-04-07 21:50:00,
2013-04-07 14:59:00,49.3,44.3,29.97,West,270,0.4,0.4,83,0.03,,,0.14,WUHU216HW,2013-04-07 21:59:00,
2013-04-07 15:04:00,49.3,44.7,29.97,WSW,248,0.9,0.9,84,0.03,,,0.14,WUHU216HW,2013-04-07 22:04:00,
2013-04-07 15:30:00,50.6,45.3,29.97,NNE,23,3.1,3.1,82,0.00,,,0.14,WUHU216HW,2013-04-07 22:30:00,
2013-04-07 15:35:00,50.4,45.1,29.97,NNE,23,3.1,3.1,82,0.00,,,0.14,WUHU216HW,2013-04-07 22:35:00,
2013-04-07 15:40:00,50.4,45.1,29.97,NNE,23,3.1,3.1,82,0.00,,,0.14,WUHU216HW,2013-04-07 22:40:00,
2013-04-07 20:00:00,43.6,40.6,30.03,NNW,338,0.0,0.0,89,0.00,,,0.14,WUHU216HW,2013-04-08 03:00:00,
2013-04-07 20:05:00,43.6,40.6,30.03,SE,135,0.0,0.4,89,0.00,,,0.14,WUHU216HW,2013-04-08 03:05:00,
2013-04-07 20:10:00,43.6,40.6,30.03,SE,135,0.0,0.4,89,0.00,,,0.14,WUHU216HW,2013-04-08 03:10:00,
2013-04-07 20:33:00,43.6,40.9,30.04,South,180,0.0,0.0,90,0.00,,,0.14,WUHU216HW,2013-04-08 03:33:00,
2013-04-07 20:38:00,43.6,40.9,30.04,South,180,0.0,0.0,90,0.00,,,0.14,WUHU216HW,2013-04-08 03:38:00,
2013-04-07 21:00:00,43.7,41.0,30.05,WNW,293,0.0,0.0,90,0.00,,,0.14,WUHU216HW,2013-04-08 04:00:00,
2013-04-07 21:01:00,43.7,41.0,30.05,NW,315,0.0,0.0,90,0.00,,,0.14,WUHU216HW,2013-04-08 04:01:00,
2013-04-07 21:06:00,43.7,41.0,30.05,NW,315,0.0,0.0,90,0.00,,,0.14,WUHU216HW,2013-04-08 04:06:00,
2013-04-07 21:30:00,42.7,40.2,30.07,SSW,203,0.0,0.0,91,0.00,,,0.14,WUHU216HW,2013-04-08 04:30:00,
2013-04-07 21:35:00,42.7,40.2,30.07,SSW,203,0.0,0.0,91,0.00,,,0.14,WUHU216HW,2013-04-08 04:35:00,
2013-04-07 21:40:00,42.7,40.2,30.07,SSW,203,0.0,0.0,91,0.00,,,0.14,WUHU216HW,2013-04-08 04:40:00,
2013-04-07 22:00:00,42.1,39.7,30.07,WSW,248,0.2,0.2,91,0.00,,,0.14,WUHU216HW,2013-04-08 05:00:00,
2013-04-07 22:05:00,42.1,39.7,30.07,WSW,248,0.0,0.2,91,0.00,,,0.14,WUHU216HW,2013-04-08 05:05:00,
2013-04-07 22:10:00,42.1,39.7,30.07,WSW,248,0.0,0.2,91,0.00,,,0.14,WUHU216HW,2013-04-08 05:10:00,
2013-04-07 22:30:00,42.1,40.0,30.09,SSW,203,0.0,0.0,92,0.00,,,0.14,WUHU216HW,2013-04-08 05:30:00,
2013-04-07 22:35:00,42.1,40.0,30.09,SSW,203,0.0,0.0,92,0.00,,,0.14,WUHU216HW,2013-04-08 05:35:00,
2013-04-07 22:40:00,42.1,40.0,30.09,SSW,203,0.0,0.0,92,0.00,,,0.14,WUHU216HW,2013-04-08 05:40:00,
2013-04-07 23:00:00,41.6,39.4,30.09,SW,225,0.0,0.0,92,0.00,,,0.14,WUHU216HW,2013-04-08 06:00:00,
2013-04-07 23:05:00,41.6,39.4,30.09,SW,225,0.0,0.0,92,0.00,,,0.14,WUHU216HW,2013-04-08 06:05:00,
2013-04-07 23:10:00,41.6,39.4,30.09,SW,225,0.0,0.0,92,0.00,,,0.14,WUHU216HW,2013-04-08 06:10:00,
2013-04-07 23:30:00,41.6,39.7,30.09,NW,315,0.0,0.0,93,0.00,,,0.14,WUHU216HW,2013-04-08 06:30:00,
2013-04-07 23:35:00,41.8,39.9,30.09,NW,315,0.0,0.0,93,0.00,,,0.14,WUHU216HW,2013-04-08 06:35:00,
2013-04-07 23:40:00,41.8,39.9,30.09,NW,315,0.0,0.0,93,0.00,,,0.14,WUHU216HW,2013-04-08 06:40:00,